This is the latest recevied weather packets stored in our database for station/object K9MWD. If no packets are shown the sender has not sent any weather packets the latest 10 day(s).
| Time | Temp. | Humidity | Pressure | Rain* | Wind** | Luminosity | Snow |
|---|---|---|---|---|---|---|---|
| 1788009073 | 25.56° C | 76% | 1018.2 hPa | 0 mm | - | 113 W/m² | - |
| 1788008769 | 25.56° C | 76% | 1018.1 hPa | 0 mm | - | 100 W/m² | - |
| 1788008469 | 25° C | 77% | 1018 hPa | 0 mm | - | 88 W/m² | - |
| 1788008166 | 25° C | 77% | 1017.9 hPa | 0 mm | - | 76 W/m² | - |
| 1788007864 | 24.44° C | 78% | 1018 hPa | 0 mm | - | 67 W/m² | - |
| 1788007563 | 24.44° C | 79% | 1018.1 hPa | 0 mm | - | 57 W/m² | - |
| 1788007264 | 23.89° C | 80% | 1018.1 hPa | 0 mm | - | 47 W/m² | - |
| 1788006964 | 23.89° C | 80% | 1018.1 hPa | 0 mm | - | 39 W/m² | - |
| 1788006662 | 23.89° C | 80% | 1017.8 hPa | 0 mm | - | 32 W/m² | - |
| 1788006357 | 23.89° C | 81% | 1018 hPa | 0 mm | - | 26 W/m² | - |
| 1788006051 | 23.89° C | 81% | 1017.8 hPa | 0 mm | - | 20 W/m² | - |
| 1788005750 | 23.33° C | 81% | 1017.8 hPa | 0 mm | - | 15 W/m² | - |
| 1788005446 | 23.33° C | 81% | 1017.8 hPa | 0 mm | - | 11 W/m² | - |
| 1788005144 | 23.33° C | 81% | 1017.8 hPa | 0 mm | - | 7 W/m² | - |
| 1788004839 | 23.89° C | 81% | 1017.8 hPa | 0 mm | - | 4 W/m² | - |
| 1788004538 | 23.89° C | 80% | 1017.6 hPa | 0 mm | - | 2 W/m² | - |
| 1788004233 | 23.89° C | 80% | 1017.9 hPa | 0 mm | - | 1 W/m² | - |
| 1788003932 | 24.44° C | 79% | 1017.5 hPa | 0 mm | - | 0 W/m² | - |
| 1788003627 | 24.44° C | 79% | 1017.6 hPa | 0 mm | - | 0 W/m² | - |
| 1788003326 | 24.44° C | 78% | 1017.5 hPa | 0 mm | - | 0 W/m² | - |
| 1788003021 | 24.44° C | 78% | 1017.7 hPa | 0 mm | - | 0 W/m² | - |
| 1788002720 | 24.44° C | 78% | 1017.5 hPa | 0 mm | - | 0 W/m² | - |
| 1788002417 | 24.44° C | 77% | 1017.6 hPa | 0 mm | - | 0 W/m² | - |
| 1788002112 | 24.44° C | 78% | 1017.6 hPa | 0 mm | - | 0 W/m² | - |
| 1788001812 | 24.44° C | 78% | 1017.4 hPa | 0 mm | - | 0 W/m² | - |
* Rain latest hour (hover to see other rain measurements)
** Current wind speed in m/s (hover to see current wind gust speed)